Regional Weather Roundup
Issued by NWS Charleston, SC

Home | Current Version | Previous Version | Text Only | Print | Product List | Glossary On
Versions: 1 2 3 4 5 6 7 8 9 10 11 12 13 14 15 16 17 18 19 20 21 22 23 24 25 26 27 28 29 30 31 32 33 34 35 36 37 38 39 40 41 42 43 44 45 46 47 48 49 50
500
ASUS42 KCHS 240428
RWRCHS

REGIONAL WEATHER ROUNDUP
NATIONAL WEATHER SERVICE CHARLESTON SC
1200 AM EDT TUE MAY 24 2016

NOTE: "FAIR" INDICATES FEW OR NO CLOUDS BELOW 12,000 FEET WITH NO
SIGNIFICANT WEATHER AND/OR OBSTRUCTIONS TO VISIBILITY.

NOT ALL STATIONS ARE QUALITY CONTROLLED. USE DATA WITH CAUTION...
ESPECIALLY DEWPOINT OBSERVATIONS.

SCZ027-030-031-034>040-042>050-240500-
...SOUTHEAST SOUTH CAROLINA...

CITY           SKY/WX    TMP DP  RH WIND       PRES   REMARKS
N CHARLESTON   CLEAR     63  54  72 NE6       30.06R
WATERFRONT PRK   N/A     70  59  68 NE6       30.04R
MOUNT PLEASANT FAIR      61  55  82 CALM      30.06S
JOHNS ISLAND   FAIR      63  57  82 CALM      30.07R
PINOPOLIS        N/A     70  55  60 NE9       29.97R
MONCKS CORNER  FAIR      54  50  87 CALM      30.06S
SUMMERVILLE    FAIR      59  59 100 CALM      30.07S
BEAUFORT MCAS  CLEAR     70  57  63 E5        30.06R
BEAUFORT ARPT  FAIR      68  55  64 CALM      30.06R
HILTON HEAD IS CLEAR     64  61  88 CALM      30.06S
WALTERBORO     CLEAR     64  54  68 CALM      30.07R
ALLENDALE      FAIR      63  57  82 CALM      30.06R

...SOUTHERN MIDLANDS AND PEE DEE...

CITY           SKY/WX    TMP DP  RH WIND       PRES   REMARKS
GEORGETOWN     FAIR      52  50  93 CALM      30.07R
KINGSTREE      FAIR      54  52  94 CALM      30.06S
ORANGEBURG     PTCLDY    60  54  80 CALM      30.06S
BARNWELL       FAIR      63  59  88 CALM      30.07R
AIKEN          FAIR      61  52  72 E6        30.10R
MANNING        FAIR      54  52  94 CALM      30.07R
COLUMBIA       PTCLDY    64  54  69 CALM      30.06R
SUMTER         CLEAR     59  53  81 NE1       30.04S
FLORENCE       CLEAR     57  54  89 CALM      30.06S
MYRTLE BEACH   CLEAR     59  48  67 CALM      30.08S
N MYRTLE BEACH CLEAR     58  55  90 CALM      30.05R

$$

GAZ063-065-086>088-099>101-113>116-118-119-134>141-150-240500-
...SOUTHEAST GEORGIA...

CITY           SKY/WX    TMP DP  RH WIND       PRES   REMARKS
SAVANNAH ARPT  CLEAR     65  60  84 N3        30.05R
HUNTER AAF     CLEAR     66  61  83 CALM      30.02S
FORT STEWART   PTCLDY    64  59  83 CALM      30.02S
STATESBORO     CLEAR     61  59  95 CALM      30.05S
SYLVANIA       CLEAR     67  56  70 SE3       30.07R
CLAXTON        FAIR      61  60  97 CALM      30.05S

...CSRA...CENTRAL AND FAR SOUTHEAST GEORGIA...

CITY           SKY/WX    TMP DP  RH WIND       PRES   REMARKS
THOMSON        CLEAR     60  58  95 CALM      30.10S
AUGUSTA-BUSH   CLEAR     59  56  89 CALM      30.05R
AUGUSTA-DANIEL CLEAR     68  52  56 E5        30.06R
SWAINSBORO     FAIR      66  54  63 E5        30.06R
VIDALIA        CLEAR     68  55  64 E3        30.05R
EASTMAN        MOCLDY    63  63 100 CALM      30.06S
HAZLEHURST     FAIR      64  57  79 CALM      30.03S
ALMA           CLEAR     60  58  92 CALM      30.04R
WAYCROSS       CLEAR     66  59  78 SE3       30.04S
JESUP          FAIR      57  55  94 CALM      30.05R
BAXLEY         FAIR      63  61  94 CALM      30.04S
BRUNSWICK      CLEAR     66  63  88 CALM      30.06R
SAINT SIMONS   CLEAR     73  58  59 SE7       30.04R

$$

SCZ027-028-034-036>038-045-046-048>050-GAZ119-141-240500-
...LAKE AND SUPPLEMENTAL COASTAL OBSERVATIONS...

STATION/POSITION TIME  TEMP    WIND        PRES    WAVE   SWELL
                       AIR SEA DIR/SP/G            HT/PER HT/PER/DIR
                 (UTC) (F)     (DEG/KT/KT) (MB)    (FT/S) (FT/S/D)
WINYAH BAY       0300   64     360/  5     1017.0R
LAKE MURRAY      0300   67      60/  2/  5 1017.3R
ACE BASIN NERRS  0300   64        CALM     1018.0R
FORT PULASKI     0400   71 76   90/  3/  3 1017.9
SAPELO ISLAND    0400   68     140/  3     1017.0S

$$

ANZ835-935-AMZ111-154-330-350-352-354-370-450-454-472-240500-
...C-MAN AND BUOY OBSERVATIONS...

STATION/POSITION TIME  TEMP    WIND        PRES    WAVE   SWELL
                       AIR SEA DIR/SP/G            HT/PER HT/PER/DIR
                 (UTC) (F)     (DEG/KT/KT) (MB)    (FT/S) (FT/S/D)
BUOY 41004       0350   72 75  350/ 10/ 12 1017.1R   2/ 9   2/ 9
BUOY 41008       0350   75 77  140/  8/ 10 1017.2    2/ 9   2/ 90/ 9
FOLLY BEACH CMAN 0400   70      30/ 10/ 12 1018.0R
CAPERS NEARSHORE 0308   71 74   10/ 10/ 12 1017.2R
FRIPP NEARSHORE  0408   74 76   80/  8/ 12 1016.9R


STATION/POSITION TIME  TEMP    WIND        PRES    WAVE   SWELL
                       AIR SEA DIR/SP/G            HT/PER HT/PER/DIR
                 (UTC) (F)     (DEG/KT/KT) (MB)    (FT/S) (FT/S/D)
5E ST. MARYS GA  0321      77                N/A     2/ 9
FRYING PAN BUOY  0400   68 76  330/ 12/ 14 1016.9R
BUOY 41025       0350   63 66  330/ 14/ 16 1015.4R   4/ 9   3/ 50/ 9
CAPE LOOKOUT NC  0400   62     310/  7/  9 1016.3R
BUOY 41002       0350   74 77  290/  8/ 12 1016.4R   4/ 6   5/ 20/ 6
BUOY 41010       0320   77 78   50/  8/ 10 1017.3R
ST AUGUSTINE FL  0400   77 80  150/ 11/ 11 1018.0R


$$




USA.gov is the U.S. government's official web portal to all federal, state and local government web resources and services.